This is the latest recevied weather packets stored in our database for station/object KD4EG. If no packets are shown the sender has not sent any weather packets the latest 1 day(s).
| Time | Temp. | Humidity | Pressure | Rain* | Wind** | Luminosity | Snow |
|---|---|---|---|---|---|---|---|
| 1777979820 | 11.67° C | 80% | 1017.1 hPa | 0 mm | 0 m/s | 20 W/m² | - |
| 1777979516 | 11.67° C | 79% | 1017 hPa | 0 mm | 0 m/s | 18 W/m² | - |
| 1777979212 | 11.67° C | 79% | 1016.9 hPa | 0 mm | 0 m/s | 18 W/m² | - |
| 1777978910 | 11.67° C | 79% | 1016.9 hPa | 0 mm | 0.45 m/s, 307° | 18 W/m² | - |
| 1777978606 | 11.67° C | 79% | 1016.7 hPa | 0 mm | 0.45 m/s, 303° | 19 W/m² | - |
| 1777978302 | 11.67° C | 79% | 1016.8 hPa | 0 mm | 0.89 m/s, 299° | 17 W/m² | - |
| 1777977999 | 11.67° C | 79% | 1016.7 hPa | 0 mm | 0.89 m/s, 306° | 15 W/m² | - |
| 1777977697 | 11.67° C | 79% | 1016.8 hPa | 0 mm | 0.45 m/s, 332° | 12 W/m² | - |
| 1777977393 | 11.67° C | 79% | 1016.7 hPa | 0 mm | 0 m/s | 10 W/m² | - |
| 1777977091 | 11.67° C | 78% | 1016.6 hPa | 0 mm | 0 m/s | 6 W/m² | - |
| 1777976788 | 12.22° C | 77% | 1016.6 hPa | 0 mm | 0 m/s | 3 W/m² | - |
| 1777976485 | 12.22° C | 75% | 1016.4 hPa | 0 mm | 0.45 m/s, 266° | 2 W/m² | - |
| 1777976184 | 12.78° C | 72% | 1016.2 hPa | 0 mm | 0.45 m/s, 274° | 0 W/m² | - |
| 1777975880 | 12.78° C | 73% | 1015.9 hPa | 0 mm | 0.45 m/s, 310° | 0 W/m² | - |
| 1777975576 | 12.22° C | 75% | 1016 hPa | 0 mm | 1.34 m/s, 331° | 0 W/m² | - |
| 1777975273 | 12.22° C | 77% | 1015.9 hPa | 0 mm | 1.34 m/s, 287° | 0 W/m² | - |
| 1777974969 | 12.22° C | 78% | 1016.2 hPa | 0 mm | 0.89 m/s, 301° | 0 W/m² | - |
| 1777974666 | 12.22° C | 78% | 1016.2 hPa | 0 mm | 0.89 m/s, 323° | 0 W/m² | - |
| 1777974363 | 12.22° C | 79% | 1016.3 hPa | 0 mm | 0.45 m/s, 322° | 0 W/m² | - |
| 1777974058 | 12.22° C | 77% | 1016.4 hPa | 0 mm | 0.89 m/s, 297° | 0 W/m² | - |
| 1777973755 | 12.78° C | 75% | 1016.5 hPa | 0 mm | 0.89 m/s, 308° | 0 W/m² | - |
| 1777973453 | 12.78° C | 74% | 1016.4 hPa | 0 mm | 0.89 m/s, 332° | 0 W/m² | - |
| 1777973150 | 12.78° C | 73% | 1016.3 hPa | 0 mm | 0 m/s | 0 W/m² | - |
| 1777972848 | 12.78° C | 72% | 1016.4 hPa | 0 mm | 0 m/s | 0 W/m² | - |
| 1777972544 | 13.33° C | 71% | 1016.2 hPa | 0 mm | 0 m/s | 0 W/m² | - |
* Rain latest hour (hover to see other rain measurements)
** Current wind speed in m/s (hover to see current wind gust speed)